Regional Weather Roundup
Issued by NWS

Home | Current Version | Previous Version | Graphics & Text | Print | Product List | Glossary On
Versions: 1 2 3 4 5 6 7 8 9 10 11 12 13 14 15 16 17 18 19 20 21 22 23 24 25 26 27 28 29 30 31 32 33 34 35 36 37 38 39 40 41 42 43 44 45 46 47 48 49 50
000
ASUS43 KMKX 210321
RWRWI

WISCONSIN REGIONAL WEATHER ROUNDUP
NATIONAL WEATHER SERVICE MILWAUKEE/SULLIVAN WI
900 PM CST THU NOV 20 2014

NOTE: "FAIR" INDICATES FEW OR NO CLOUDS BELOW 12,000 FEET WITH NO
SIGNIFICANT WEATHER AND/OR OBSTRUCTIONS TO VISIBILITY.

WIZ001-002-006>008-014>016-023>028-210400-
NORTHWEST WISCONSIN

CITY           SKY/WX    TMP DP  RH WIND       PRES   REMARKS
SUPERIOR ARPT  PTCLDY     3  -4  73 SW3       30.20R
ASHLAND        CLEAR      5  -3  69 S6        30.18R WCI  -6
HAYWARD        CLEAR     -7 -11  83 CALM      30.16R
SIREN          FAIR      -5  -9  84 CALM      30.20S
CUMBERLAND     PTCLDY     0  -6  78 W6        30.16S WCI -12
RICE LAKE      PTCLDY    -3  -7  84 CALM      30.21R
CHETEK         PTCLDY    -1  -4  89 CALM      30.19S
LADYSMITH      CLEAR      0  -5  79 CALM      30.18R
EAU CLAIRE     PTCLDY     5  -2  72 S3        30.22R
MENOMONIE      PTCLDY     8  -1  66 SW3       30.23R
NEW RICHMOND   PTCLDY     1  -4  78 SW3       30.22R
OSCEOLA        PTCLDY    -2  -7  80 CALM      30.25R
$$

WIZ003>005-009-010-017-018-210400-
NORTH CENTRAL WISCONSIN

CITY           SKY/WX    TMP DP  RH WIND       PRES   REMARKS
MANITOWISH WTR MOCLDY     7   0  72 W8        30.09R WCI  -5
ARBOR VITAE    PTCLDY    11   4  71 W9        30.09R WCI  -1
WOODRUFF       PTCLDY    11   4  71 W9        30.09R WCI  -1
RHINELANDER    PTCLDY     7  -1  70 W13       30.09R WCI  -9
EAGLE RIVER    CLOUDY    10   3  74 W9        30.07R WCI  -3
LAND O LAKES   LGT SNOW  10   7  85 W6        30.07R WCI   1
PHILLIPS       FAIR     -10 -14  82 CALM      30.13R
TOMAHAWK       CLEAR     -5  -8  85 CALM      30.13S
MEDFORD        CLEAR      4  -3  72 CALM      30.14R
MERRILL        CLEAR     -2  -5  88 CALM      30.15R
$$

WIZ029-030-035-036-043>047-210400-
CENTRAL WISCONSIN

CITY           SKY/WX    TMP DP  RH WIND       PRES   REMARKS
WAUSAU         CLEAR      6  -2  69 NW5       30.15R WCI  -3
MOSINEE        CLEAR      5   0  78 W6        30.17R WCI  -6
MARSHFIELD     CLEAR      4  -5  66 W5        30.17R WCI  -5
STEVENS POINT  CLEAR      6  -3  67 W3        30.19R
WAUPACA        CLEAR     12   0  59 W6        30.21R WCI   2
WAUTOMA        CLEAR      8  -3  61 CALM      30.23R
WISC RAPIDS    CLEAR      6  -4  63 W3        30.21R
CAMP DOUGLAS   CLEAR      1  -1  88 W2        30.22R
$$

WIZ011>013-019>022-031-037>040-048>050-210400-
NORTHEAST WISCONSIN

CITY           SKY/WX    TMP DP  RH WIND       PRES   REMARKS
ANTIGO         PTCLDY     4  -3  75 W10       30.11R WCI -12
SHAWANO        CLEAR     10   1  67 W3        30.19R
OCONTO         MOCLDY     9   2  71 W6        30.18R WCI   0
STURGEON BAY   MOCLDY    14   0  52 NW14G20   30.15R WCI  -1
GREEN BAY      CLEAR      9   0  67 W7        30.19R WCI  -2
MANITOWOC      CLEAR     12   3  67 NW12      30.19R WCI  -2
APPLETON       NOT AVBL
CLINTONVILLE   CLEAR      9   0  66 W7        30.19R WCI  -3
OSHKOSH        CLEAR     10  -1  61 W6        30.20R WCI   0
$$

WIZ032>034-041-042-053>061-210400-
SOUTHWEST WISCONSIN

CITY           SKY/WX    TMP DP  RH WIND       PRES   REMARKS
LA CROSSE      CLEAR     13   1  59 W6        30.26R WCI   4
SPARTA         CLEAR      1  -3  86 CALM      30.25R
VIROQUA        CLEAR     10   2  68 W7        30.21R WCI  -1
BOSCOBEL       FAIR      11   3  70 S5        30.28R WCI   3
PRAIRIE DU CHI CLEAR     11   3  67 CALM      30.29R
PLATTEVILLE    PTCLDY    10   3  73 W5        30.26R WCI   2
$$

WIZ056-057-062-063-064-067-068-210400-
SOUTH CENTRAL WISCONSIN

CITY           SKY/WX    TMP DP  RH WIND       PRES   REMARKS
REEDSBURG      CLEAR     10   1  66 CALM      30.23R
BARABOO/DELLS  CLEAR     10  -1  60 W5        30.22R WCI   2
LONE ROCK      CLEAR     12   0  58 SW3       30.26R
MINERAL POINT  CLEAR     10   3  72 W5        30.22R WCI   2
MADISON        CLEAR     12  -1  56 W3        30.23R
MIDDLETON      CLEAR     14   0  54 CALM      30.23R
WATERTOWN      CLEAR     12   1  59 CALM      30.22R
MONROE         CLEAR     14   7  73 W10       30.22R WCI   1
JANESVILLE     CLEAR     14   5  67 W3        30.24R
$$

WIZ051-052-058>065-066-070>072-210400-
SOUTHEAST WISCONSIN

CITY           SKY/WX    TMP DP  RH WIND       PRES   REMARKS
MILWAUKEE      CLEAR     17  -1  45 NW14      30.22R WCI   3
WAUKESHA       CLEAR     14   0  52 NW10G16   30.22R WCI   1
MILWAUKEE/TIMM CLEAR     14   0  52 NW8       30.23R WCI   3
RACINE         CLEAR     16   0  49 NW10      30.23R WCI   4
BURLINGTON     CLEAR     13  -1  52 W7        30.22R WCI   3
KENOSHA        CLEAR     14   3  61 W8        30.22R WCI   3
FOND DU LAC    CLEAR     10  -1  61 W6        30.21R WCI   0
SHEBOYGAN      CLEAR     13   1  59 NW9       30.19R WCI   1
WEST BEND      CLEAR     12   0  57 W8        30.20R WCI   1
JUNEAU         CLEAR     11  -1  57 W3        30.22R
$$

LSZ147-162-210400-
LAKE SUPERIOR

STATION/POSITION TIME  TEMP    WIND        PRES    WAVE
                       AIR SEA DIR/SP/G            HT/PER
                 (UTC) (F)     (DEG/KT/KT) (MB)    (FT/S)
DEVILS ISLAND    0300   16     290/ 17/ 21 1022.5R
PORT WING        0200   17     290/ 11/ 19 1022.0R
SAXON HARBOR     0200   14     220/  6/ 10 1021.3R
$$

LMZ867-665-643>646-210400-
LAKE MICHIGAN

STATION/POSITION TIME  TEMP    WIND        PRES    WAVE
                       AIR SEA DIR/SP/G            HT/PER
                 (UTC) (F)     (DEG/KT/KT) (MB)    (FT/S)
CHAMBERS ISLAND  0200   15     290/ 10/ 21 1020.7R
N MID LAKE BUOY  0250   19 42  320/ 21/ 27 1021.0R   5/ 5
NORTHPORT PIER   0303   16     290/ 11/ 19 1020.7R
SISTER BAY       0143          310/ 24/ 30   N/A
KEWAUNEE LAKESHO 0300   11     300/  5/  7 1021.0R
SHEBOYGAN LAKESH 0300   15 34  300/ 11/ 13 1024.2R
PORT WASHINGTON  0240   15     290/  3/  5 1024.0R
ATWATER BUOY     0300   21     300/ 16/ 19 1023.4R
MILWAUKEE LAKESH 0300   17     310/ 10/ 16   N/A
S MID LAKE BUOY  0250   24 43  300/ 21/ 31 1023.0R   6/ 6
KENOSHA   LAKESH 0300   17     290/  7/ 11 1023.4R
$$

TC  - TEMPERATURE IN CELSIUS
VSB - VISIBILITY IN STATUTE MILES
WCI - WIND CHILL INDEX
HX  - HEAT INDEX




USA.gov is the U.S. government's official web portal to all federal, state and local government web resources and services.